Location: ??????
(38.5153°N, 23.0340°E)
Time: 23:05:53
(UTC+00:00)

Meteor 2-6 Rocket - Pass Details

Date: 13 December 2025
Orbit: 806 x 912 km, 81.3° (Epoch: 14 January)

Event Time Altitude Azimuth Distance (km) Brightness Sun altitude
Rises 17:17:52 0° 192° (SSW) 3,388 7.6 -24.7°
Reaches altitude 10° 17:20:15 10° 195° (SSW) 2,472 6.9 -25.2°
Maximum altitude 17:25:52 74° 280° (W) 908 4.4 -26.3°
Enters shadow 17:29:25 25° 1° (N) 1,726 5.7 -26.9°
